CZ-6A DEB

Satellite information

Favourite Embed

Satellite Type and Status

DEBRISIN ORBIT

Key statistics

Satellite CZ-6A DEB at a glance.

Uptime

1129

Days in orbit

Revolutions

≈ 14.1

Per day

Orbit

SSO

Sun Synchronous Orbit

Inclination

98.8

Latest

Satellite identification and parameters

Extended collection of information and parameters for CZ-6A DEB.

Object identification

Identified? True

Debris? True

Object name: CZ-6A DEB

International designator: 2022-151AFU

Object number (NORAD): 56644

Object ID (CCSDS): 56644

Country: PEOPLES REPUBLIC OF CHINA (PRC)

Current information (Y/N): Y

RCS size: SMALL

Orbital parameters

Period: 102.043 minutes

Inclination: 98.8282 deg

SMA: 7233.505 km

Apoapsis: 884.131 km

Periapsis: 826.608 km

RAAN: 346.9735 deg

Eccentricy: 0.00397614

Argument of periapsis: 127.6558 deg

Mean anomaly: 232.8231 deg

Mean motion: 14.11170861 rev/day

Mean motion (dot): 0.00000307 rev/day2

B* drag term: 0.00019312441 1/REarth

Two-line elements (TLE)

Creation date: Dec. 13, 2025, 5:47 p.m.

Reference frame: TEME

Reference center: EARTH

Epoch: Dec. 13, 2025, 6:13 a.m. UTC

TLE line 0: 0 CZ-6A DEB

TLE line 1: 1 56644U 22151AFU 25347.25933824 .00000307 00000-0 19312-3 0 9992

TLE line 2: 2 56644 98.8282 346.9735 0039761 127.6558 232.8231 14.11170861136417

Live tracking on map

Real-time ground track for satellite CZ-6A DEB.

In-orbit conjunctions

A list of the most updated potential collisions computed for object CZ-6A DEB.

Target Orbit TCA Probability of collision Miss distance Type
CZ-6A DEB LEO 2025-11-23 19:27:12 0.0001246351 554.0 (m) DEBRIS
COSMOS 1275 DEB LEO 2025-10-17 06:29:56 0.0001303116 199.0 (m) DEBRIS

Associated space launch

Chinese satellite reported for atmospheric/ocean/environmental/spatial parameter research purposes, details TBD.

CZ-6A DEB was lifted into orbit during the mission ‘Long March 6A | Yunhai 3’, on board a Long March 6A space rocket.

The launch took place on Nov. 11, 2022, 10:52 p.m. from Launch Complex 9A.

For more information about the launch, click the button.

Launch to space Long March 6A | Yunhai 3
Long March 6A | Yunhai 3

Agency: N/A

Status: Launch Successful

Launch date: Nov. 11, 2022, 10:52 p.m. UTC

Rocket: Long March 6A

Launch pad: Launch Complex 9A

Location: Taiyuan Satellite Launch Center, People's Republic of China

...

Latest news about this satellite

There are no fresh news available about this satellite. Check back as we update our databases every day.


Newsletter sign-up

Weekly statistics, charts and insights to help you stay on top of the space industry.